M I D A S
Marine Information and Data Acquisition System
Tripno 2002 of the Zeeleeuw from 2010-12-20 08:39:17 to 2010-12-20 16:13:24
Back to CruiseResearch ActivitiesStationsMapUnderway DataData graphs

EquipmentUnitsComments
TimeDGPSUTC
LatitudeDGPSDM.mWGS84
LongitudeDGPSDM.mWGS84
SpeedMeteo Stationm/sRelative wind speed
DirectionMeteo StationdegRelative wind direction
TemperatureMeteo Stationdeg CelciusAir temperature
PressureMeteo StationPaAtmospheric pressure
HumidityMeteo Station%Relative humidity
Missing or incorrect values are displayed as -999
Metereological data collected by the RV Zeeleeuw from 2010-12-20 08:33:48 to 2010-12-20 16:21:29
                                                                                    Next 1000 lines
Time Latitude Longitude Speed Direction Temperature Pressure Humidity
2010-12-20 08:33:57 51°13.664 2°55.961 -999 4 -2.7 100200 37
2010-12-20 08:34:02 51°13.664 2°55.961 -999 351 -2.7 100200 37
2010-12-20 08:34:07 51°13.664 2°55.961 -999 358 -2.7 100200 37
2010-12-20 08:34:12 51°13.664 2°55.961 -999 343 -2.7 100200 37
2010-12-20 08:34:17 51°13.664 2°55.961 -999 356 -2.7 100200 37
2010-12-20 08:34:22 51°13.664 2°55.961 -999 356 -2.7 100200 37
2010-12-20 08:34:27 51°13.664 2°55.961 -999 358 -2.7 100200 36
2010-12-20 08:34:32 51°13.664 2°55.961 -999 359 -2.7 100200 36
2010-12-20 08:34:37 51°13.664 2°55.961 -999 2 -2.7 100200 37
2010-12-20 08:34:42 51°13.664 2°55.96 -999 -999 -2.7 100200 37
2010-12-20 08:34:47 51°13.664 2°55.961 -999 7 -2.7 100200 37
2010-12-20 08:34:52 51°13.664 2°55.961 -999 359 -2.7 100200 37
2010-12-20 08:34:57 51°13.664 2°55.961 -999 356 -2.7 100200 37
2010-12-20 08:35:01 51°13.664 2°55.961 -999 6 -2.7 100200 37
2010-12-20 08:35:06 51°13.664 2°55.961 -999 352 -2.7 100200 37
2010-12-20 08:35:12 51°13.664 2°55.961 -999 357 -2.7 100200 37
2010-12-20 08:35:17 51°13.664 2°55.961 -999 357 -2.7 100200 37
2010-12-20 08:35:21 51°13.664 2°55.961 -999 358 -2.7 100200 37
2010-12-20 08:35:26 51°13.664 2°55.961 -999 352 -2.7 100200 37
2010-12-20 08:35:32 51°13.663 2°55.961 -999 347 -2.7 100200 37
2010-12-20 08:35:37 51°13.663 2°55.961 -999 359 -2.7 100200 37
2010-12-20 08:35:42 51°13.663 2°55.961 -999 359 -2.7 100200 37
2010-12-20 08:35:47 51°13.663 2°55.961 -999 353 -2.7 100200 37
2010-12-20 08:35:52 51°13.663 2°55.961 -999 2 -2.7 100200 37
2010-12-20 08:35:57 51°13.663 2°55.961 -999 5 -2.7 100200 37
2010-12-20 08:36:02 51°13.663 2°55.96 -999 360 -2.7 100200 37
2010-12-20 08:36:07 51°13.663 2°55.96 -999 359 -2.6 100200 37
2010-12-20 08:36:12 51°13.662 2°55.96 -999 348 -2.6 100200 37
2010-12-20 08:36:17 51°13.662 2°55.96 -999 357 -2.7 100200 37
2010-12-20 08:36:22 51°13.66 2°55.959 -999 359 -2.7 100200 37
2010-12-20 08:36:27 51°13.661 2°55.959 -999 353 -2.6 100200 37
2010-12-20 08:36:32 51°13.661 2°55.959 -999 357 -2.6 100200 37
2010-12-20 08:36:37 51°13.66 2°55.959 -999 355 -2.6 100200 37
2010-12-20 08:36:42 51°13.659 2°55.958 -999 351 -2.6 100200 37
2010-12-20 08:36:47 51°13.66 2°55.958 -999 2 -2.7 100200 37
2010-12-20 08:36:52 51°13.66 2°55.959 -999 9 -2.7 100200 37
2010-12-20 08:36:57 51°13.66 2°55.959 -999 356 -2.7 100200 37
2010-12-20 08:37:02 51°13.661 2°55.959 -999 1 -2.7 100200 37
2010-12-20 08:37:07 51°13.661 2°55.96 -999 3 -2.7 100200 36
2010-12-20 08:37:12 51°13.662 2°55.96 -999 5 -2.7 100200 36
2010-12-20 08:37:17 51°13.663 2°55.96 -999 358 -2.7 100200 37
2010-12-20 08:37:22 51°13.663 2°55.961 -999 339 -2.7 100200 37
2010-12-20 08:37:27 51°13.664 2°55.961 -999 345 -2.7 100200 37
2010-12-20 08:37:32 51°13.664 2°55.961 -999 356 -2.7 100200 37
2010-12-20 08:37:37 51°13.664 2°55.961 -999 354 -2.7 100200 37
2010-12-20 08:37:42 51°13.664 2°55.961 -999 348 -2.7 100200 37
2010-12-20 08:37:47 51°13.664 2°55.961 -999 354 -2.7 100200 37
2010-12-20 08:37:52 51°13.664 2°55.961 -999 358 -2.7 100200 37
2010-12-20 08:37:57 51°13.664 2°55.961 -999 352 -2.7 100200 37
2010-12-20 08:38:02 51°13.663 2°55.961 -999 351 -2.7 100200 37
2010-12-20 08:38:07 51°13.663 2°55.961 -999 356 -2.7 100200 37
2010-12-20 08:38:12 51°13.663 2°55.96 -999 1 -2.7 100200 37
2010-12-20 08:38:18 51°13.662 2°55.96 -999 356 -2.7 100200 37
2010-12-20 08:38:23 51°13.663 2°55.96 -999 347 -2.7 100200 37
2010-12-20 08:38:27 51°13.663 2°55.961 -999 354 -2.7 100200 37
2010-12-20 08:38:32 51°13.664 2°55.961 -999 4 -2.7 100200 37
2010-12-20 08:38:37 51°13.664 2°55.961 -999 -999 -2.7 100200 37
2010-12-20 08:38:42 51°13.663 2°55.961 -999 3 -2.7 100200 37
2010-12-20 08:38:47 51°13.663 2°55.961 -999 350 -2.7 100200 37
2010-12-20 08:38:52 51°13.663 2°55.961 -999 5 -2.7 100200 37
2010-12-20 08:38:57 51°13.664 2°55.961 -999 349 -2.7 100200 37
2010-12-20 08:39:02 51°13.664 2°55.961 -999 344 -2.7 100200 37
2010-12-20 08:39:07 51°13.663 2°55.961 -999 358 -2.7 100200 37
2010-12-20 08:39:11 51°13.664 2°55.961 -999 352 -2.7 100200 37
2010-12-20 08:39:17 51°13.664 2°55.961 -999 350 -2.7 100200 37
2010-12-20 08:39:22 51°13.664 2°55.962 -999 356 -2.7 100200 37
2010-12-20 08:39:27 51°13.664 2°55.962 -999 1 -2.7 100200 37
2010-12-20 08:39:31 51°13.664 2°55.962 -999 356 -2.7 100200 37
2010-12-20 08:39:37 51°13.664 2°55.962 -999 360 -2.7 100200 37
2010-12-20 08:39:42 51°13.663 2°55.962 -999 359 -2.7 100200 37
2010-12-20 08:39:47 51°13.663 2°55.961 -999 348 -2.7 100200 36
2010-12-20 08:39:52 51°13.663 2°55.961 -999 354 -2.7 100200 36
2010-12-20 08:39:57 51°13.663 2°55.962 -999 1 -2.7 100200 37
2010-12-20 08:40:02 51°13.663 2°55.962 -999 -999 -2.7 100200 37
2010-12-20 08:40:07 51°13.663 2°55.961 -999 7 -2.7 100200 37
2010-12-20 08:40:11 51°13.663 2°55.961 -999 6 -2.7 100200 37
2010-12-20 08:40:17 51°13.662 2°55.961 -999 6 -2.7 100200 37
2010-12-20 08:40:22 51°13.662 2°55.961 -999 6 -2.7 100200 37
2010-12-20 08:40:27 51°13.662 2°55.961 -999 6 -2.7 100200 37
2010-12-20 08:40:32 51°13.662 2°55.961 -999 5 -2.7 100200 37
2010-12-20 08:40:37 51°13.662 2°55.961 -999 5 -2.7 100210 37
2010-12-20 08:40:42 51°13.662 2°55.961 -999 3 -2.7 100210 37
2010-12-20 08:40:47 51°13.662 2°55.96 -999 3 -2.7 100210 37
2010-12-20 08:40:52 51°13.662 2°55.959 -999 8 -2.7 100210 37
2010-12-20 08:40:57 51°13.662 2°55.958 -999 25 -2.7 100200 37
2010-12-20 08:41:02 51°13.662 2°55.957 -999 11 -2.7 100200 37
2010-12-20 08:41:07 51°13.662 2°55.955 -999 17 -2.7 100210 37
2010-12-20 08:41:12 51°13.663 2°55.953 -999 27 -2.7 100210 37
2010-12-20 08:41:17 51°13.664 2°55.95 -999 21 -2.7 100200 37
2010-12-20 08:41:22 51°13.665 2°55.947 -999 18 -2.7 100200 37
2010-12-20 08:41:27 51°13.666 2°55.943 -999 20 -2.7 100200 37
2010-12-20 08:41:33 51°13.667 2°55.939 -999 22 -2.7 100200 37
2010-12-20 08:41:39 51°13.668 2°55.934 -999 27 -2.6 100200 37
2010-12-20 08:41:44 51°13.669 2°55.929 -999 20 -2.6 100200 37
2010-12-20 08:41:50 51°13.67 2°55.924 -999 16 -2.6 100200 37
2010-12-20 08:41:55 51°13.673 2°55.92 -999 22 -2.6 100200 37
2010-12-20 08:42:01 51°13.673 2°55.913 -999 36 -2.7 100210 37
2010-12-20 08:42:06 51°13.675 2°55.908 -999 33 -2.7 100210 37
2010-12-20 08:42:11 51°13.676 2°55.902 -999 28 -2.7 100210 37
2010-12-20 08:42:16 51°13.677 2°55.896 -999 30 -2.7 100210 37
2010-12-20 08:42:21 51°13.678 2°55.89 -999 29 -2.6 100200 37
2010-12-20 08:42:26 51°13.678 2°55.883 -999 34 -2.6 100200 37
2010-12-20 08:42:31 51°13.679 2°55.877 -999 22 -2.6 100210 36
2010-12-20 08:42:35 51°13.679 2°55.871 -999 28 -2.6 100210 36
2010-12-20 08:42:41 51°13.68 2°55.863 -999 33 -2.7 100200 37
2010-12-20 08:42:46 51°13.68 2°55.856 -999 41 -2.7 100200 37
2010-12-20 08:42:51 51°13.681 2°55.848 -999 39 -2.6 100200 37
2010-12-20 08:42:55 51°13.681 2°55.843 -999 22 -2.6 100200 37
2010-12-20 08:43:01 51°13.682 2°55.834 -999 29 -2.6 100210 37
2010-12-20 08:43:06 51°13.683 2°55.827 -999 32 -2.6 100210 37
2010-12-20 08:43:11 51°13.684 2°55.82 -999 37 -2.6 100210 37
2010-12-20 08:43:15 51°13.684 2°55.814 -999 42 -2.6 100210 37
2010-12-20 08:43:21 51°13.684 2°55.806 -999 38 -2.6 100210 37
2010-12-20 08:43:26 51°13.685 2°55.799 -999 34 -2.6 100210 37
2010-12-20 08:43:31 51°13.685 2°55.792 -999 34 -2.6 100210 37
2010-12-20 08:43:36 51°13.685 2°55.785 -999 37 -2.6 100210 37
2010-12-20 08:43:40 51°13.686 2°55.781 -999 33 -2.6 100210 37
2010-12-20 08:43:46 51°13.686 2°55.773 -999 35 -2.6 100210 37
2010-12-20 08:43:51 51°13.686 2°55.767 -999 35 -2.6 100210 37
2010-12-20 08:43:55 51°13.686 2°55.763 -999 35 -2.6 100210 37
2010-12-20 08:44:00 51°13.687 2°55.758 1.9 36 -2.6 100210 37
2010-12-20 08:44:05 51°13.687 2°55.754 0.7 31 -2.6 100210 37
2010-12-20 08:44:10 51°13.687 2°55.75 1.6 36 -2.6 100210 36
2010-12-20 08:44:15 51°13.688 2°55.748 0.8 32 -2.6 100210 36
2010-12-20 08:44:19 51°13.689 2°55.747 0.3 36 -2.6 100210 39
2010-12-20 08:44:24 51°13.689 2°55.746 0.1 29 -2.6 100210 39
2010-12-20 08:44:29 51°13.689 2°55.746 0.1 29 -2.6 100210 36
2010-12-20 08:44:34 51°13.689 2°55.746 -999 27 -2.6 100210 36
2010-12-20 08:44:39 51°13.691 2°55.747 -999 33 -2.6 100210 37
2010-12-20 08:44:44 51°13.692 2°55.748 -999 36 -2.6 100210 37
2010-12-20 08:44:48 51°13.693 2°55.749 -999 44 -2.6 100210 37
2010-12-20 08:44:53 51°13.694 2°55.75 -999 38 -2.6 100210 37
2010-12-20 08:44:59 51°13.696 2°55.751 -999 34 -2.6 100210 37
2010-12-20 08:45:03 51°13.697 2°55.752 -999 42 -2.6 100210 37
2010-12-20 08:45:08 51°13.698 2°55.753 -999 22 -2.6 100210 36
2010-12-20 08:45:13 51°13.699 2°55.754 -999 52 -2.6 100210 36
2010-12-20 08:45:18 51°13.7 2°55.753 -999 22 -2.6 100210 37
2010-12-20 08:45:23 51°13.7 2°55.753 0.8 50 -2.6 100210 37
2010-12-20 08:45:29 51°13.701 2°55.753 0.5 24 -2.6 100210 37
2010-12-20 08:45:34 51°13.7 2°55.752 1.5 51 -2.6 100210 37
2010-12-20 08:45:39 51°13.699 2°55.751 1.8 20 -2.6 100210 37
2010-12-20 08:45:43 51°13.698 2°55.75 0.2 51 -2.6 100210 37
2010-12-20 08:45:49 51°13.697 2°55.749 0.8 24 -2.6 100210 37
2010-12-20 08:45:54 51°13.696 2°55.749 0.1 76 -2.6 100210 37
2010-12-20 08:45:58 51°13.695 2°55.748 0.1 22 -2.6 100220 39
2010-12-20 08:46:03 51°13.695 2°55.748 -999 52 -2.6 100220 39
2010-12-20 08:46:08 51°13.695 2°55.747 -999 22 -2.5 100210 37
2010-12-20 08:46:13 51°13.695 2°55.747 -999 53 -2.5 100210 37
2010-12-20 08:46:18 51°13.696 2°55.747 -999 22 -2.5 100220 38
2010-12-20 08:46:23 51°13.698 2°55.746 -999 53 -2.5 100220 38
2010-12-20 08:46:27 51°13.699 2°55.746 -999 21 -2.5 100220 38
2010-12-20 08:46:32 51°13.701 2°55.745 -999 52 -2.5 100220 38
2010-12-20 08:46:37 51°13.704 2°55.744 -999 22 -2.5 100210 38
2010-12-20 08:46:42 51°13.707 2°55.742 -999 53 -2.5 100210 38
2010-12-20 08:46:47 51°13.71 2°55.74 -999 22 -2.5 100220 38
2010-12-20 08:46:51 51°13.713 2°55.739 -999 312 -2.5 100220 38
2010-12-20 08:46:57 51°13.718 2°55.736 -999 264 -2.5 100220 38
2010-12-20 08:47:02 51°13.722 2°55.732 -999 307 -2.5 100220 38
2010-12-20 08:47:07 51°13.727 2°55.728 -999 265 -2.4 100220 38
2010-12-20 08:47:12 51°13.731 2°55.724 -999 307 -2.4 100220 38
2010-12-20 08:47:17 51°13.737 2°55.72 -999 254 -2.4 100220 37
2010-12-20 08:47:22 51°13.743 2°55.716 -999 307 -2.4 100220 37
2010-12-20 08:47:27 51°13.749 2°55.71 -999 251 -2.4 100220 37
2010-12-20 08:47:32 51°13.755 2°55.704 -999 307 -2.4 100220 37
2010-12-20 08:47:37 51°13.761 2°55.698 -999 22 -2.4 100220 37
2010-12-20 08:47:42 51°13.767 2°55.691 -999 307 -2.4 100220 37
2010-12-20 08:47:47 51°13.774 2°55.684 -999 251 -2.4 100220 36
2010-12-20 08:47:52 51°13.781 2°55.677 -999 284 -2.4 100220 36
2010-12-20 08:47:57 51°13.788 2°55.67 -999 252 -2.4 100220 38
2010-12-20 08:48:02 51°13.796 2°55.663 -999 307 -2.4 100220 38
2010-12-20 08:48:07 51°13.804 2°55.656 -999 251 -2.4 100220 38
2010-12-20 08:48:12 51°13.812 2°55.649 -999 307 -2.4 100220 38
2010-12-20 08:48:17 51°13.82 2°55.641 -999 254 -2.4 100220 38
2010-12-20 08:48:22 51°13.828 2°55.634 -999 307 -2.4 100220 38
2010-12-20 08:48:27 51°13.837 2°55.627 -999 268 -2.4 100220 37
2010-12-20 08:48:31 51°13.844 2°55.621 -999 307 -2.4 100220 37
2010-12-20 08:48:37 51°13.854 2°55.612 -999 262 -2.4 100220 38
2010-12-20 08:48:42 51°13.864 2°55.605 -999 307 -2.4 100220 38
2010-12-20 08:48:47 51°13.873 2°55.598 -999 22 -2.4 100220 37
2010-12-20 08:48:52 51°13.883 2°55.591 -999 307 -2.4 100220 37
2010-12-20 08:48:57 51°13.893 2°55.584 -999 22 -2.4 100220 38
2010-12-20 08:49:03 51°13.904 2°55.576 -999 307 -2.4 100220 38
2010-12-20 08:49:08 51°13.914 2°55.569 -999 316 -2.4 100220 38
2010-12-20 08:49:13 51°13.924 2°55.562 -999 308 -2.4 100220 38
2010-12-20 08:49:19 51°13.936 2°55.554 -999 319 -2.4 100220 37
2010-12-20 08:49:24 51°13.947 2°55.547 -999 329 -2.4 100220 37
2010-12-20 08:49:30 51°13.958 2°55.538 -999 324 -2.4 100220 38
2010-12-20 08:49:35 51°13.969 2°55.531 -999 307 -2.4 100220 38
2010-12-20 08:49:40 51°13.979 2°55.524 -999 22 -2.4 100220 38
2010-12-20 08:49:46 51°13.991 2°55.515 -999 307 -2.4 100220 38
2010-12-20 08:49:51 51°14.001 2°55.508 -999 22 -2.4 100210 37
2010-12-20 08:49:55 51°14.009 2°55.502 -999 284 -2.4 100210 37
2010-12-20 08:50:00 51°14.019 2°55.494 -999 318 -2.4 100220 37
2010-12-20 08:50:06 51°14.032 2°55.486 -999 307 -2.4 100220 37
2010-12-20 08:50:11 51°14.042 2°55.479 -999 322 -2.4 100220 38
2010-12-20 08:50:15 51°14.051 2°55.473 -999 307 -2.4 100220 38
2010-12-20 08:50:20 51°14.061 2°55.465 -999 327 -2.4 100220 38
2010-12-20 08:50:26 51°14.074 2°55.456 -999 308 -2.4 100220 38
2010-12-20 08:50:31 51°14.084 2°55.449 -999 319 -2.4 100220 36
2010-12-20 08:50:36 51°14.094 2°55.441 -999 325 -2.4 100220 36
2010-12-20 08:50:41 51°14.104 2°55.433 -999 322 -2.4 100220 38
2010-12-20 08:50:46 51°14.114 2°55.425 -999 307 -2.4 100220 38
2010-12-20 08:50:51 51°14.124 2°55.418 -999 316 -2.4 100220 38
2010-12-20 08:50:56 51°14.134 2°55.41 -999 284 -2.4 100220 38
2010-12-20 08:51:01 51°14.144 2°55.403 -999 253 -2.4 100220 37
2010-12-20 08:51:06 51°14.154 2°55.396 -999 307 -2.4 100220 37
2010-12-20 08:51:11 51°14.165 2°55.388 -999 22 -2.4 100220 37
2010-12-20 08:51:15 51°14.173 2°55.382 -999 307 -2.4 100220 37
2010-12-20 08:51:21 51°14.185 2°55.374 -999 248 -2.4 100220 38
2010-12-20 08:51:26 51°14.196 2°55.366 -999 307 -2.4 100220 38
2010-12-20 08:51:31 51°14.206 2°55.359 -999 22 -2.4 100210 38
2010-12-20 08:51:35 51°14.214 2°55.352 -999 308 -2.4 100210 38
2010-12-20 08:51:41 51°14.227 2°55.342 -999 256 -2.4 100220 38
2010-12-20 08:51:46 51°14.238 2°55.333 -999 307 -2.4 100220 38
2010-12-20 08:51:51 51°14.25 2°55.324 -999 252 -2.4 100220 38
2010-12-20 08:51:55 51°14.259 2°55.316 -999 307 -2.4 100220 38
2010-12-20 08:52:00 51°14.271 2°55.306 -999 22 -2.4 100210 38
2010-12-20 08:52:06 51°14.285 2°55.293 -999 308 -2.4 100210 38
2010-12-20 08:52:11 51°14.296 2°55.281 -999 251 -2.4 100210 38
2010-12-20 08:52:15 51°14.305 2°55.271 -999 307 -2.4 100210 38
2010-12-20 08:52:20 51°14.317 2°55.259 -999 322 -2.4 100210 38
2010-12-20 08:52:26 51°14.33 2°55.243 -999 308 -2.4 100210 38
2010-12-20 08:52:30 51°14.339 2°55.232 -999 22 -2.4 100210 38
2010-12-20 08:52:35 51°14.351 2°55.219 -999 307 -2.4 100210 38
2010-12-20 08:52:40 51°14.362 2°55.206 -999 322 -2.4 100210 38
2010-12-20 08:52:45 51°14.374 2°55.193 -999 307 -2.4 100210 38
2010-12-20 08:52:51 51°14.387 2°55.176 -999 316 -2.3 100210 38
2010-12-20 08:52:55 51°14.396 2°55.164 -999 284 -2.3 100210 38
2010-12-20 08:53:00 51°14.407 2°55.15 -999 316 -2.3 100210 38
2010-12-20 08:53:06 51°14.421 2°55.133 -999 308 -2.3 100210 38
2010-12-20 08:53:11 51°14.433 2°55.119 -999 319 -2.3 100210 36
2010-12-20 08:53:15 51°14.442 2°55.109 -999 307 -2.3 100210 36
2010-12-20 08:53:20 51°14.454 2°55.095 -999 22 -2.3 100210 38
2010-12-20 08:53:25 51°14.466 2°55.082 -999 307 -2.3 100210 38
2010-12-20 08:53:30 51°14.478 2°55.068 -999 22 -2.3 100210 38
2010-12-20 08:53:35 51°14.489 2°55.054 -999 307 -2.3 100210 38
2010-12-20 08:53:40 51°14.501 2°55.039 0.1 19 -2.3 100210 38
2010-12-20 08:53:45 51°14.513 2°55.025 0.1 307 -2.3 100210 38
2010-12-20 08:53:50 51°14.525 2°55.012 0.1 22 -2.2 100210 38
2010-12-20 08:53:55 51°14.537 2°54.999 -999 323 -2.2 100210 38
2010-12-20 08:54:00 51°14.55 2°54.987 -999 326 -2.2 100210 38
2010-12-20 08:54:05 51°14.562 2°54.973 -999 308 -2.2 100210 38
2010-12-20 08:54:10 51°14.574 2°54.96 -999 324 -2.2 100210 38
2010-12-20 08:54:15 51°14.586 2°54.947 -999 307 -2.2 100210 38
2010-12-20 08:54:19 51°14.596 2°54.936 -999 315 -2.2 100210 38
2010-12-20 08:54:24 51°14.608 2°54.923 -999 308 -2.2 100210 38
2010-12-20 08:54:29 51°14.621 2°54.909 -999 21 -2.2 100210 38
2010-12-20 08:54:34 51°14.633 2°54.895 -999 307 -2.2 100210 38
2010-12-20 08:54:39 51°14.645 2°54.882 1.1 17 -2.1 100210 38
2010-12-20 08:54:43 51°14.655 2°54.871 0.2 308 -2.1 100210 38
2010-12-20 08:54:48 51°14.667 2°54.857 0.2 251 -2.1 100210 38
2010-12-20 08:54:53 51°14.679 2°54.843 0.1 284 -2.1 100210 38
2010-12-20 08:54:58 51°14.691 2°54.829 0.1 22 -2.1 100210 38
2010-12-20 08:55:03 51°14.703 2°54.815 -999 308 -2.1 100210 38
2010-12-20 08:55:07 51°14.713 2°54.804 -999 22 -2.1 100210 38
2010-12-20 08:55:13 51°14.728 2°54.788 -999 308 -2.1 100210 38
2010-12-20 08:55:17 51°14.737 2°54.777 -999 22 -2.1 100210 38
2010-12-20 08:55:22 51°14.749 2°54.763 -999 308 -2.1 100210 38
2010-12-20 08:55:27 51°14.761 2°54.75 -999 22 -2.1 100210 38
2010-12-20 08:55:31 51°14.771 2°54.739 -999 307 -2.1 100210 38
2010-12-20 08:55:37 51°14.786 2°54.723 -999 22 -2.1 100210 38
2010-12-20 08:55:42 51°14.798 2°54.709 -999 308 -2.1 100210 38
2010-12-20 08:55:47 51°14.81 2°54.696 -999 247 -2.1 100210 37
2010-12-20 08:55:52 51°14.822 2°54.683 -999 307 -2.1 100210 37
2010-12-20 08:55:58 51°14.836 2°54.666 1.3 17 -2.1 100210 38
2010-12-20 08:56:03 51°14.848 2°54.653 0.4 310 -2.1 100210 38
2010-12-20 08:56:07 51°14.858 2°54.642 0.1 259 -2 100210 38
2010-12-20 08:56:13 51°14.872 2°54.626 0.1 307 -2 100210 38
2010-12-20 08:56:19 51°14.887 2°54.609 -999 249 -2 100220 37
2010-12-20 08:56:24 51°14.899 2°54.595 2.4 309 -2 100220 37
2010-12-20 08:56:30 51°14.913 2°54.579 1.6 18 -2 100210 38
2010-12-20 08:56:35 51°14.925 2°54.565 2.3 308 -2 100210 38
2010-12-20 08:56:40 51°14.937 2°54.551 0.3 22 -2 100220 38
2010-12-20 08:56:45 51°14.949 2°54.537 0.1 308 -2 100220 38
2010-12-20 08:56:50 51°14.961 2°54.523 0.1 250 -2 100220 40
2010-12-20 08:56:55 51°14.972 2°54.509 -999 284 -2 100220 40
2010-12-20 08:56:59 51°14.982 2°54.498 -999 22 -1.9 100220 38
2010-12-20 08:57:04 51°14.994 2°54.484 -999 307 -1.9 100220 38
2010-12-20 08:57:10 51°15.008 2°54.468 -999 256 -1.9 100220 38
2010-12-20 08:57:15 51°15.02 2°54.454 -999 303 -1.9 100220 38
2010-12-20 08:57:19 51°15.03 2°54.443 0.1 24 -1.9 100220 38
2010-12-20 08:57:24 51°15.042 2°54.429 0.1 307 -1.9 100220 38
2010-12-20 08:57:29 51°15.054 2°54.416 0.1 22 -1.9 100220 38
2010-12-20 08:57:34 51°15.066 2°54.402 -999 307 -1.9 100220 38
2010-12-20 08:57:39 51°15.077 2°54.387 -999 253 -1.8 100220 38
2010-12-20 08:57:43 51°15.087 2°54.375 0.2 303 -1.8 100220 38
2010-12-20 08:57:48 51°15.099 2°54.361 0.1 252 -1.8 100220 38
2010-12-20 08:57:53 51°15.11 2°54.346 -999 284 -1.8 100220 38
2010-12-20 08:57:58 51°15.122 2°54.332 -999 254 -1.8 100220 39
2010-12-20 08:58:03 51°15.133 2°54.317 -999 307 -1.8 100220 39
2010-12-20 08:58:07 51°15.142 2°54.304 -999 22 -1.8 100220 38
2010-12-20 08:58:12 51°15.153 2°54.29 -999 307 -1.8 100220 38
2010-12-20 08:58:17 51°15.165 2°54.275 -999 22 -1.8 100220 38
2010-12-20 08:58:22 51°15.176 2°54.26 -999 307 -1.8 100220 38
2010-12-20 08:58:28 51°15.19 2°54.242 -999 22 -1.7 100230 37
2010-12-20 08:58:31 51°15.197 2°54.233 -999 307 -1.7 100230 37
2010-12-20 08:58:36 51°15.208 2°54.218 -999 22 -1.7 100220 38
2010-12-20 08:58:42 51°15.222 2°54.2 -999 307 -1.7 100220 38
2010-12-20 08:58:46 51°15.231 2°54.188 -999 22 -1.7 100220 38
2010-12-20 08:58:51 51°15.243 2°54.174 0.1 307 -1.7 100220 38
2010-12-20 08:58:56 51°15.254 2°54.159 1.4 19 -1.7 100220 38
2010-12-20 08:59:02 51°15.268 2°54.141 0.9 305 -1.7 100220 38
2010-12-20 08:59:07 51°15.28 2°54.126 1.3 255 -1.7 100220 38
2010-12-20 08:59:11 51°15.289 2°54.115 0.2 308 -1.7 100220 38
2010-12-20 08:59:16 51°15.3 2°54.1 0.1 22 -1.6 100220 38
2010-12-20 08:59:21 51°15.312 2°54.085 1.1 305 -1.6 100220 38
2010-12-20 08:59:28 51°15.328 2°54.065 0.2 248 -1.6 100230 40
2010-12-20 08:59:32 51°15.338 2°54.053 0.1 307 -1.6 100230 40
2010-12-20 08:59:37 51°15.35 2°54.039 -999 22 -1.6 100220 38
2010-12-20 08:59:42 51°15.361 2°54.024 0.1 307 -1.6 100220 38
2010-12-20 08:59:47 51°15.372 2°54.009 0.2 17 -1.6 100220 38
2010-12-20 08:59:52 51°15.384 2°53.995 0.1 284 -1.6 100220 38
2010-12-20 08:59:57 51°15.396 2°53.981 1.5 19 -1.6 100230 38
2010-12-20 09:00:02 51°15.408 2°53.966 1.5 307 -1.6 100230 38
2010-12-20 09:00:07 51°15.419 2°53.952 1.3 19 -1.5 100220 38
2010-12-20 09:00:12 51°15.431 2°53.937 1.7 311 -1.5 100220 38
2010-12-20 09:00:17 51°15.442 2°53.923 1.7 24 -1.5 100230 37
2010-12-20 09:00:22 51°15.454 2°53.908 0.9 311 -1.5 100230 37
2010-12-20 09:00:27 51°15.466 2°53.894 0.2 23 -1.5 100230 39
2010-12-20 09:00:32 51°15.478 2°53.879 0.1 307 -1.5 100230 39
2010-12-20 09:00:37 51°15.491 2°53.866 0.1 249 -1.5 100230 40
2010-12-20 09:00:42 51°15.503 2°53.852 -999 307 -1.5 100230 40
2010-12-20 09:00:47 51°15.516 2°53.839 -999 251 -1.5 100230 38
2010-12-20 09:00:52 51°15.529 2°53.826 -999 284 -1.5 100230 38
2010-12-20 09:00:57 51°15.542 2°53.814 -999 22 -1.5 100230 38
2010-12-20 09:01:02 51°15.555 2°53.802 -999 307 -1.5 100230 38
2010-12-20 09:01:07 51°15.568 2°53.79 0.1 19 -1.5 100230 37
2010-12-20 09:01:12 51°15.582 2°53.78 0.1 307 -1.5 100230 37
2010-12-20 09:01:17 51°15.596 2°53.769 0.1 22 -1.5 100230 38
2010-12-20 09:01:22 51°15.609 2°53.758 -999 308 -1.5 100230 38
2010-12-20 09:01:27 51°15.623 2°53.747 0.8 20 -1.5 100230 38
2010-12-20 09:01:32 51°15.636 2°53.736 0.1 307 -1.5 100230 38
2010-12-20 09:01:37 51°15.65 2°53.725 0.1 19 -1.5 100230 38
2010-12-20 09:01:42 51°15.664 2°53.714 0.1 307 -1.5 100230 38
2010-12-20 09:01:47 51°15.677 2°53.702 -999 256 -1.5 100230 38
2010-12-20 09:01:52 51°15.691 2°53.691 0.1 311 -1.5 100230 38
2010-12-20 09:01:57 51°15.704 2°53.679 1.6 20 -1.5 100230 38
2010-12-20 09:02:02 51°15.717 2°53.668 0.2 305 -1.5 100230 38
2010-12-20 09:02:07 51°15.731 2°53.657 0.1 254 -1.5 100230 38
2010-12-20 09:02:12 51°15.745 2°53.646 -999 307 -1.5 100230 38
2010-12-20 09:02:17 51°15.759 2°53.635 -999 260 -1.4 100230 37
2010-12-20 09:02:22 51°15.773 2°53.624 -999 307 -1.4 100230 37
2010-12-20 09:02:27 51°15.786 2°53.613 -999 22 -1.4 100230 38
2010-12-20 09:02:32 51°15.8 2°53.602 -999 307 -1.4 100230 38
2010-12-20 09:02:37 51°15.813 2°53.591 -999 22 -1.4 100230 38
2010-12-20 09:02:42 51°15.827 2°53.58 -999 307 -1.4 100230 38
2010-12-20 09:02:47 51°15.841 2°53.57 -999 253 -1.4 100230 38
2010-12-20 09:02:52 51°15.855 2°53.559 -999 307 -1.4 100230 38
2010-12-20 09:02:57 51°15.868 2°53.548 -999 255 -1.4 100220 38
2010-12-20 09:03:02 51°15.882 2°53.538 -999 307 -1.4 100220 38
2010-12-20 09:03:07 51°15.896 2°53.528 -999 254 -1.4 100210 38
2010-12-20 09:03:12 51°15.91 2°53.519 -999 307 -1.4 100210 38
2010-12-20 09:03:17 51°15.924 2°53.509 0.1 257 -1.4 100220 38
2010-12-20 09:03:22 51°15.938 2°53.499 0.1 307 -1.4 100220 38
2010-12-20 09:03:27 51°15.952 2°53.489 0.1 261 -1.4 100230 38
2010-12-20 09:03:32 51°15.966 2°53.478 -999 307 -1.4 100230 38
2010-12-20 09:03:36 51°15.977 2°53.47 -999 22 -1.4 100230 38
2010-12-20 09:03:42 51°15.994 2°53.458 -999 307 -1.4 100230 38
2010-12-20 09:03:47 51°16.008 2°53.448 -999 245 -1.4 100210 37
2010-12-20 09:03:52 51°16.022 2°53.438 0.1 283 -1.4 100210 37
2010-12-20 09:03:57 51°16.036 2°53.427 0.7 251 -1.4 100220 38
2010-12-20 09:04:02 51°16.049 2°53.417 0.1 307 -1.4 100220 38
2010-12-20 09:04:07 51°16.063 2°53.407 0.1 251 -1.4 100220 38
2010-12-20 09:04:12 51°16.077 2°53.397 -999 307 -1.4 100220 38
2010-12-20 09:04:17 51°16.091 2°53.387 -999 258 -1.4 100220 38
2010-12-20 09:04:22 51°16.104 2°53.377 -999 307 -1.4 100220 38
2010-12-20 09:04:27 51°16.118 2°53.367 -999 259 -1.4 100210 38
2010-12-20 09:04:32 51°16.131 2°53.357 -999 307 -1.4 100210 38
2010-12-20 09:04:37 51°16.145 2°53.347 -999 259 -1.3 100220 38
2010-12-20 09:04:43 51°16.161 2°53.336 -999 307 -1.3 100220 38
2010-12-20 09:04:47 51°16.173 2°53.328 -999 252 -1.3 100210 39
2010-12-20 09:04:52 51°16.186 2°53.318 -999 284 -1.3 100210 39
2010-12-20 09:04:57 51°16.2 2°53.308 -999 22 -1.3 100210 39
2010-12-20 09:05:02 51°16.214 2°53.298 -999 307 -1.3 100210 39
2010-12-20 09:05:07 51°16.228 2°53.288 -999 22 -1.3 100220 38
2010-12-20 09:05:12 51°16.242 2°53.278 -999 307 -1.3 100220 38
2010-12-20 09:05:17 51°16.255 2°53.269 -999 250 -1.3 100210 38
2010-12-20 09:05:23 51°16.272 2°53.257 -999 307 -1.3 100210 38
2010-12-20 09:05:27 51°16.284 2°53.249 -999 254 -1.3 100210 38
2010-12-20 09:05:32 51°16.298 2°53.239 -999 307 -1.3 100210 38
2010-12-20 09:05:37 51°16.312 2°53.23 -999 22 -1.3 100220 39
2010-12-20 09:05:42 51°16.325 2°53.22 -999 307 -1.3 100220 39
2010-12-20 09:05:47 51°16.339 2°53.21 -999 251 -1.3 100210 38
2010-12-20 09:05:52 51°16.353 2°53.201 -999 284 -1.3 100210 38
2010-12-20 09:05:57 51°16.367 2°53.191 -999 252 -1.2 100220 38
2010-12-20 09:06:02 51°16.381 2°53.181 -999 307 -1.2 100220 38
2010-12-20 09:06:08 51°16.398 2°53.169 -999 250 -1.2 100220 39
2010-12-20 09:06:12 51°16.409 2°53.162 -999 308 -1.2 100220 39
2010-12-20 09:06:17 51°16.423 2°53.152 -999 259 -1.2 100220 38
2010-12-20 09:06:22 51°16.437 2°53.142 -999 307 -1.2 100220 38
2010-12-20 09:06:27 51°16.451 2°53.132 -999 256 -1.2 100220 37
2010-12-20 09:06:32 51°16.464 2°53.123 -999 307 -1.2 100220 37
2010-12-20 09:06:37 51°16.478 2°53.113 -999 260 -1.2 100220 39
2010-12-20 09:06:42 51°16.492 2°53.104 -999 307 -1.2 100220 39
2010-12-20 09:06:47 51°16.506 2°53.094 -999 258 -1.2 100220 39
2010-12-20 09:06:52 51°16.52 2°53.084 -999 284 -1.2 100220 39
2010-12-20 09:06:57 51°16.534 2°53.074 -999 22 -1.2 100220 39
2010-12-20 09:07:02 51°16.548 2°53.064 -999 307 -1.2 100220 39
2010-12-20 09:07:07 51°16.562 2°53.055 -999 251 -1.2 100220 39
2010-12-20 09:07:12 51°16.575 2°53.045 -999 307 -1.2 100220 39
2010-12-20 09:07:17 51°16.589 2°53.035 -999 22 -1.2 100220 39
2010-12-20 09:07:22 51°16.603 2°53.025 -999 307 -1.2 100220 39
2010-12-20 09:07:27 51°16.616 2°53.015 -999 22 -1.2 100210 38
2010-12-20 09:07:32 51°16.63 2°53.005 -999 307 -1.2 100210 38
2010-12-20 09:07:37 51°16.644 2°52.995 -999 257 -1.2 100220 38
2010-12-20 09:07:43 51°16.661 2°52.983 -999 307 -1.2 100220 38
2010-12-20 09:07:47 51°16.672 2°52.975 -999 251 -1.2 100220 39
2010-12-20 09:07:52 51°16.685 2°52.965 -999 307 -1.2 100220 39
2010-12-20 09:07:56 51°16.697 2°52.957 -999 252 -1.2 100220 38
2010-12-20 09:08:02 51°16.713 2°52.946 -999 307 -1.2 100220 38
2010-12-20 09:08:07 51°16.727 2°52.935 -999 22 -1.2 100220 38
2010-12-20 09:08:12 51°16.741 2°52.926 -999 307 -1.2 100220 38
2010-12-20 09:08:16 51°16.752 2°52.917 -999 257 -1.2 100220 38
2010-12-20 09:08:22 51°16.768 2°52.905 -999 307 -1.2 100220 38
2010-12-20 09:08:27 51°16.782 2°52.896 -999 257 -1.1 100220 39
2010-12-20 09:08:32 51°16.796 2°52.886 -999 307 -1.1 100220 39
2010-12-20 09:08:37 51°16.809 2°52.876 -999 251 -1.1 100220 39
2010-12-20 09:08:42 51°16.823 2°52.866 -999 307 -1.1 100220 39
2010-12-20 09:08:47 51°16.837 2°52.856 -999 22 -1.1 100220 38
2010-12-20 09:08:52 51°16.851 2°52.846 -999 284 -1.1 100220 38
2010-12-20 09:08:57 51°16.864 2°52.836 -999 250 -1.1 100220 39
2010-12-20 09:09:02 51°16.878 2°52.826 -999 307 -1.1 100220 39
2010-12-20 09:09:07 51°16.891 2°52.816 -999 251 -1.1 100220 37
2010-12-20 09:09:12 51°16.905 2°52.806 -999 307 -1.1 100220 37
2010-12-20 09:09:17 51°16.919 2°52.796 -999 250 -1.1 100220 39
2010-12-20 09:09:22 51°16.932 2°52.786 -999 307 -1.1 100220 39
2010-12-20 09:09:27 51°16.946 2°52.776 -999 252 -1.1 100220 38
2010-12-20 09:09:32 51°16.96 2°52.766 -999 307 -1.1 100220 38
2010-12-20 09:09:37 51°16.974 2°52.756 -999 254 -1.1 100220 39
2010-12-20 09:09:42 51°16.987 2°52.746 1.6 312 -1.1 100220 39
2010-12-20 09:09:47 51°17.001 2°52.736 0.8 262 -1.1 100220 39
2010-12-20 09:09:52 51°17.014 2°52.726 0.1 284 -1.1 100220 39
2010-12-20 09:09:57 51°17.028 2°52.716 1.3 259 -1.1 100220 38
2010-12-20 09:10:03 51°17.044 2°52.704 1.6 306 -1.1 100220 38
2010-12-20 09:10:07 51°17.055 2°52.695 0.7 255 -1.1 100240 38
2010-12-20 09:10:12 51°17.069 2°52.686 2.2 307 -1.1 100240 38
2010-12-20 09:10:17 51°17.083 2°52.676 2.8 258 -1.1 100220 37
2010-12-20 09:10:22 51°17.096 2°52.666 2.3 310 -1.1 100220 37
2010-12-20 09:10:27 51°17.11 2°52.656 1.6 250 -1.1 100230 37
2010-12-20 09:10:32 51°17.124 2°52.646 1 308 -1.1 100230 37
2010-12-20 09:10:37 51°17.137 2°52.636 1.9 252 -1.1 100220 40
2010-12-20 09:10:42 51°17.151 2°52.626 0.2 305 -1.1 100220 40
2010-12-20 09:10:47 51°17.164 2°52.616 1.1 253 -1.1 100210 38
2010-12-20 09:10:52 51°17.178 2°52.606 1.5 279 -1.1 100210 38
2010-12-20 09:10:57 51°17.192 2°52.596 1.9 256 -1 100220 38
2010-12-20 09:11:02 51°17.206 2°52.587 0.6 305 -1 100220 38
2010-12-20 09:11:07 51°17.219 2°52.577 0.6 255 -1 100220 37
2010-12-20 09:11:12 51°17.233 2°52.567 1.4 307 -1 100220 37
2010-12-20 09:11:17 51°17.247 2°52.557 1.1 22 -1 100220 38
2010-12-20 09:11:22 51°17.26 2°52.547 2.7 308 -1 100220 38
2010-12-20 09:11:27 51°17.274 2°52.537 0.8 254 -1 100220 38
2010-12-20 09:11:32 51°17.288 2°52.527 0.1 307 -1 100220 38
2010-12-20 09:11:37 51°17.301 2°52.517 0.1 256 -1 100220 40
2010-12-20 09:11:42 51°17.315 2°52.506 -999 307 -1 100220 40
2010-12-20 09:11:47 51°17.329 2°52.496 -999 251 -1 100220 37
2010-12-20 09:11:52 51°17.343 2°52.486 -999 307 -1 100220 37
2010-12-20 09:11:57 51°17.356 2°52.475 0.1 18 -1 100220 38
2010-12-20 09:12:02 51°17.37 2°52.464 0.1 306 -1 100220 38
2010-12-20 09:12:07 51°17.383 2°52.454 0.1 254 -1 100220 39
2010-12-20 09:12:12 51°17.397 2°52.444 -999 307 -1 100220 39
2010-12-20 09:12:17 51°17.411 2°52.434 -999 251 -1 100220 38
2010-12-20 09:12:22 51°17.424 2°52.424 -999 307 -1 100220 38
2010-12-20 09:12:27 51°17.438 2°52.414 -999 253 -1 100220 39
2010-12-20 09:12:32 51°17.452 2°52.404 -999 307 -1 100220 39
2010-12-20 09:12:37 51°17.465 2°52.394 0.1 254 -1 100220 39
2010-12-20 09:12:42 51°17.479 2°52.383 0.1 307 -1 100220 39
2010-12-20 09:12:47 51°17.493 2°52.373 0.1 255 -1 100220 39
2010-12-20 09:12:52 51°17.507 2°52.363 -999 307 -1 100220 39
2010-12-20 09:12:57 51°17.52 2°52.353 -999 253 -1 100220 38
2010-12-20 09:13:02 51°17.534 2°52.343 -999 307 -1 100220 38
2010-12-20 09:13:07 51°17.548 2°52.333 -999 249 -1 100220 39
2010-12-20 09:13:12 51°17.562 2°52.323 -999 307 -1 100220 39
2010-12-20 09:13:17 51°17.575 2°52.313 -999 255 -1 100220 39
2010-12-20 09:13:22 51°17.589 2°52.302 -999 307 -1 100220 39
2010-12-20 09:13:27 51°17.603 2°52.292 -999 259 -1 100220 39
2010-12-20 09:13:32 51°17.617 2°52.282 -999 307 -1 100220 39
2010-12-20 09:13:37 51°17.63 2°52.272 -999 251 -0.9 100220 38
2010-12-20 09:13:42 51°17.644 2°52.262 -999 307 -0.9 100220 38
2010-12-20 09:13:47 51°17.658 2°52.252 -999 250 -1 100220 39
2010-12-20 09:13:52 51°17.672 2°52.242 -999 284 -1 100220 39
2010-12-20 09:13:57 51°17.685 2°52.232 -999 250 -0.9 100220 38
2010-12-20 09:14:02 51°17.699 2°52.222 -999 307 -0.9 100220 38
2010-12-20 09:14:07 51°17.712 2°52.212 -999 253 -1 100210 39
2010-12-20 09:14:12 51°17.726 2°52.202 -999 307 -1 100210 39
2010-12-20 09:14:17 51°17.74 2°52.191 -999 254 -1 100220 38
2010-12-20 09:14:22 51°17.753 2°52.181 -999 307 -1 100220 38
2010-12-20 09:14:27 51°17.767 2°52.171 -999 248 -0.9 100220 37
2010-12-20 09:14:32 51°17.781 2°52.161 -999 307 -0.9 100220 37
2010-12-20 09:14:37 51°17.794 2°52.151 -999 248 -0.9 100220 39
2010-12-20 09:14:43 51°17.811 2°52.139 -999 307 -0.9 100220 39
2010-12-20 09:14:47 51°17.822 2°52.131 -999 257 -0.9 100220 39
2010-12-20 09:14:52 51°17.835 2°52.121 -999 307 -0.9 100220 39
2010-12-20 09:14:56 51°17.846 2°52.113 -999 255 -0.9 100220 39
2010-12-20 09:15:02 51°17.862 2°52.101 -999 307 -0.9 100220 39
2010-12-20 09:15:07 51°17.876 2°52.091 -999 248 -0.9 100220 39
2010-12-20 09:15:12 51°17.89 2°52.081 -999 307 -0.9 100220 39
2010-12-20 09:15:17 51°17.904 2°52.072 -999 256 -0.9 100220 39
2010-12-20 09:15:22 51°17.918 2°52.062 -999 307 -0.9 100220 39
2010-12-20 09:15:27 51°17.931 2°52.052 -999 250 -0.9 100220 38
2010-12-20 09:15:32 51°17.945 2°52.042 -999 307 -0.9 100220 38
2010-12-20 09:15:37 51°17.959 2°52.032 -999 257 -0.9 100220 39
2010-12-20 09:15:42 51°17.973 2°52.021 -999 307 -0.9 100220 39
2010-12-20 09:15:47 51°17.987 2°52.011 -999 254 -0.9 100220 38
2010-12-20 09:15:52 51°18.001 2°52.001 -999 284 -0.9 100220 38
2010-12-20 09:15:57 51°18.015 2°51.99 -999 251 -0.9 100220 39
2010-12-20 09:16:02 51°18.029 2°51.98 -999 307 -0.9 100220 39
2010-12-20 09:16:07 51°18.044 2°51.969 -999 251 -0.9 100220 38
2010-12-20 09:16:12 51°18.058 2°51.959 -999 307 -0.9 100220 38
2010-12-20 09:16:17 51°18.073 2°51.948 -999 22 -0.9 100220 39
2010-12-20 09:16:22 51°18.087 2°51.937 -999 307 -0.9 100220 39
2010-12-20 09:16:27 51°18.102 2°51.926 -999 250 -0.9 100220 38
2010-12-20 09:16:32 51°18.117 2°51.915 -999 307 -0.9 100220 38
2010-12-20 09:16:37 51°18.131 2°51.904 -999 252 -1 100220 38
2010-12-20 09:16:43 51°18.149 2°51.891 -999 307 -1 100220 38
2010-12-20 09:16:47 51°18.16 2°51.882 -999 249 -1 100220 38
2010-12-20 09:16:52 51°18.175 2°51.871 -999 307 -1 100220 38
2010-12-20 09:16:56 51°18.187 2°51.862 -999 248 -1 100240 38
2010-12-20 09:17:02 51°18.204 2°51.85 -999 307 -1 100240 38
2010-12-20 09:17:07 51°18.219 2°51.839 -999 250 -0.9 100220 37
2010-12-20 09:17:12 51°18.234 2°51.828 -999 307 -0.9 100220 37
2010-12-20 09:17:17 51°18.249 2°51.818 -999 22 -1 100230 38
2010-12-20 09:17:22 51°18.263 2°51.807 -999 307 -1 100230 38
2010-12-20 09:17:27 51°18.278 2°51.797 -999 248 -1 100220 38
2010-12-20 09:17:32 51°18.293 2°51.786 -999 307 -1 100220 38
2010-12-20 09:17:37 51°18.308 2°51.775 -999 22 -0.9 100220 38
2010-12-20 09:17:42 51°18.322 2°51.764 -999 307 -0.9 100220 38
2010-12-20 09:17:47 51°18.337 2°51.753 -999 22 -0.9 100220 38
2010-12-20 09:17:52 51°18.352 2°51.742 -999 284 -0.9 100220 38
2010-12-20 09:17:57 51°18.367 2°51.73 -999 22 -0.9 100230 38
2010-12-20 09:18:02 51°18.382 2°51.72 -999 307 -0.9 100230 38
2010-12-20 09:18:07 51°18.397 2°51.708 -999 22 -0.9 100220 38
2010-12-20 09:18:12 51°18.411 2°51.697 -999 307 -0.9 100220 38
2010-12-20 09:18:17 51°18.426 2°51.686 -999 22 -0.9 100240 38
2010-12-20 09:18:22 51°18.441 2°51.675 -999 307 -0.9 100240 38
2010-12-20 09:18:27 51°18.456 2°51.664 -999 22 -0.9 100220 39
2010-12-20 09:18:32 51°18.47 2°51.653 -999 307 -0.9 100220 39
2010-12-20 09:18:37 51°18.485 2°51.642 -999 22 -0.9 100230 38
2010-12-20 09:18:42 51°18.5 2°51.631 -999 307 -0.9 100230 38
2010-12-20 09:18:47 51°18.515 2°51.62 -999 22 -0.9 100220 38
2010-12-20 09:18:52 51°18.529 2°51.609 -999 284 -0.9 100220 38
2010-12-20 09:18:57 51°18.544 2°51.598 -999 22 -0.9 100220 38
2010-12-20 09:19:02 51°18.559 2°51.587 -999 307 -0.9 100220 38
2010-12-20 09:19:07 51°18.574 2°51.576 -999 22 -0.9 100230 38
2010-12-20 09:19:12 51°18.589 2°51.565 -999 307 -0.9 100230 38
2010-12-20 09:19:17 51°18.603 2°51.553 -999 22 -0.9 100230 38
2010-12-20 09:19:22 51°18.618 2°51.542 -999 307 -0.9 100230 38
2010-12-20 09:19:27 51°18.633 2°51.53 -999 22 -0.9 100230 39
2010-12-20 09:19:32 51°18.648 2°51.519 -999 307 -0.9 100230 39
2010-12-20 09:19:37 51°18.663 2°51.509 -999 22 -0.9 100230 38
2010-12-20 09:19:42 51°18.678 2°51.498 -999 307 -0.9 100230 38
2010-12-20 09:19:47 51°18.692 2°51.487 -999 22 -0.9 100230 37
2010-12-20 09:19:52 51°18.707 2°51.476 -999 284 -0.9 100230 37
2010-12-20 09:19:57 51°18.722 2°51.465 -999 22 -0.9 100230 39
2010-12-20 09:20:02 51°18.737 2°51.454 -999 307 -0.9 100230 39
2010-12-20 09:20:07 51°18.751 2°51.442 -999 22 -0.9 100230 39
2010-12-20 09:20:12 51°18.766 2°51.431 -999 307 -0.9 100230 39
2010-12-20 09:20:16 51°18.778 2°51.422 -999 22 -0.9 100220 39
2010-12-20 09:20:22 51°18.795 2°51.409 -999 307 -0.9 100220 39
2010-12-20 09:20:27 51°18.81 2°51.398 -999 22 -0.9 100220 39
2010-12-20 09:20:32 51°18.825 2°51.387 -999 307 -0.9 100220 39
2010-12-20 09:20:37 51°18.84 2°51.376 -999 22 -0.9 100220 38
2010-12-20 09:20:42 51°18.855 2°51.365 -999 307 -0.9 100220 38
2010-12-20 09:20:47 51°18.869 2°51.354 -999 22 -0.8 100230 39
2010-12-20 09:20:52 51°18.884 2°51.343 -999 284 -0.8 100230 39
2010-12-20 09:20:57 51°18.899 2°51.333 -999 22 -0.8 100230 38
2010-12-20 09:21:02 51°18.914 2°51.322 -999 307 -0.8 100230 38
2010-12-20 09:21:07 51°18.929 2°51.312 -999 22 -0.8 100230 38
2010-12-20 09:21:12 51°18.944 2°51.302 -999 307 -0.8 100230 38
2010-12-20 09:21:17 51°18.959 2°51.291 -999 22 -0.8 100220 39
2010-12-20 09:21:23 51°18.977 2°51.28 -999 307 -0.8 100220 39
2010-12-20 09:21:27 51°18.989 2°51.271 -999 22 -0.8 100220 39
2010-12-20 09:21:32 51°19.004 2°51.261 -999 307 -0.8 100220 39
2010-12-20 09:21:37 51°19.019 2°51.251 -999 22 -0.8 100240 38
2010-12-20 09:21:42 51°19.034 2°51.241 -999 307 -0.8 100240 38
2010-12-20 09:21:47 51°19.049 2°51.231 -999 22 -0.8 100220 38
2010-12-20 09:21:52 51°19.064 2°51.22 -999 284 -0.8 100220 38
2010-12-20 09:21:57 51°19.079 2°51.21 -999 22 -0.8 100230 38
2010-12-20 09:22:02 51°19.094 2°51.201 -999 307 -0.8 100230 38
2010-12-20 09:22:07 51°19.109 2°51.19 -999 22 -0.8 100230 38
2010-12-20 09:22:12 51°19.124 2°51.18 -999 307 -0.8 100230 38
2010-12-20 09:22:17 51°19.139 2°51.17 -999 22 -0.8 100230 38
2010-12-20 09:22:22 51°19.155 2°51.16 -999 307 -0.8 100230 38
2010-12-20 09:22:27 51°19.17 2°51.15 -999 22 -0.8 100230 37
2010-12-20 09:22:32 51°19.185 2°51.14 -999 307 -0.8 100230 37
2010-12-20 09:22:37 51°19.2 2°51.129 -999 22 -0.8 100230 39
2010-12-20 09:22:42 51°19.215 2°51.119 -999 307 -0.8 100230 39
2010-12-20 09:22:47 51°19.23 2°51.109 -999 22 -0.8 100220 39
2010-12-20 09:22:52 51°19.246 2°51.099 -999 284 -0.8 100220 39
2010-12-20 09:22:57 51°19.26 2°51.089 -999 22 -0.8 100230 39
2010-12-20 09:23:02 51°19.276 2°51.079 -999 307 -0.8 100230 39
2010-12-20 09:23:07 51°19.291 2°51.069 -999 22 -0.8 100220 39
2010-12-20 09:23:12 51°19.306 2°51.059 -999 307 -0.8 100220 39
2010-12-20 09:23:17 51°19.321 2°51.048 -999 22 -0.8 100230 38
2010-12-20 09:23:22 51°19.336 2°51.038 -999 307 -0.8 100230 38
2010-12-20 09:23:27 51°19.351 2°51.028 -999 22 -0.8 100220 38
2010-12-20 09:23:32 51°19.366 2°51.018 -999 307 -0.8 100220 38
2010-12-20 09:23:37 51°19.381 2°51.008 -999 22 -0.8 100230 39
2010-12-20 09:23:42 51°19.396 2°50.998 -999 307 -0.8 100230 39
2010-12-20 09:23:47 51°19.412 2°50.988 -999 22 -0.7 100230 39
2010-12-20 09:23:52 51°19.427 2°50.978 -999 284 -0.7 100230 39
2010-12-20 09:23:57 51°19.442 2°50.968 -999 22 -0.7 100230 38
2010-12-20 09:24:02 51°19.458 2°50.958 -999 307 -0.7 100230 38
2010-12-20 09:24:07 51°19.473 2°50.948 -999 22 -0.8 100230 39
2010-12-20 09:24:12 51°19.488 2°50.938 -999 307 -0.8 100230 39
2010-12-20 09:24:17 51°19.504 2°50.928 -999 22 -0.7 100220 39
2010-12-20 09:24:22 51°19.519 2°50.917 -999 307 -0.7 100220 39
2010-12-20 09:24:27 51°19.534 2°50.907 -999 22 -0.7 100230 38
2010-12-20 09:24:32 51°19.549 2°50.897 -999 307 -0.7 100230 38
2010-12-20 09:24:37 51°19.565 2°50.887 -999 251 -0.7 100230 39
2010-12-20 09:24:42 51°19.58 2°50.877 -999 307 -0.7 100230 39
2010-12-20 09:24:47 51°19.595 2°50.867 -999 22 -0.7 100230 38
2010-12-20 09:24:52 51°19.611 2°50.857 -999 284 -0.7 100230 38
2010-12-20 09:24:57 51°19.626 2°50.847 -999 22 -0.7 100230 39
2010-12-20 09:25:02 51°19.641 2°50.837 -999 307 -0.7 100230 39
2010-12-20 09:25:07 51°19.656 2°50.827 -999 22 -0.7 100230 37
2010-12-20 09:25:12 51°19.672 2°50.817 -999 307 -0.7 100230 37
2010-12-20 09:25:17 51°19.687 2°50.808 -999 22 -0.7 100220 39
2010-12-20 09:25:22 51°19.702 2°50.798 -999 307 -0.7 100220 39
2010-12-20 09:25:27 51°19.717 2°50.788 -999 22 -0.7 100240 39
2010-12-20 09:25:32 51°19.732 2°50.779 -999 307 -0.7 100240 39
2010-12-20 09:25:37 51°19.747 2°50.769 -999 22 -0.7 100230 39
2010-12-20 09:25:43 51°19.765 2°50.758 -999 307 -0.7 100230 39
2010-12-20 09:25:47 51°19.777 2°50.75 -999 22 -0.7 100230 39
2010-12-20 09:25:52 51°19.792 2°50.741 -999 307 -0.7 100230 39
2010-12-20 09:25:57 51°19.807 2°50.731 -999 22 -0.7 100230 38
2010-12-20 09:26:02 51°19.822 2°50.721 -999 307 -0.7 100230 38
2010-12-20 09:26:07 51°19.837 2°50.712 -999 22 -0.7 100220 39
2010-12-20 09:26:12 51°19.852 2°50.702 -999 307 -0.7 100220 39
2010-12-20 09:26:17 51°19.867 2°50.693 -999 22 -0.7 100230 39
2010-12-20 09:26:22 51°19.882 2°50.683 -999 307 -0.7 100230 39
2010-12-20 09:26:27 51°19.897 2°50.673 -999 22 -0.6 100220 39
2010-12-20 09:26:32 51°19.912 2°50.663 -999 307 -0.6 100220 39
2010-12-20 09:26:37 51°19.927 2°50.654 -999 22 -0.7 100220 38
2010-12-20 09:26:42 51°19.942 2°50.644 -999 307 -0.7 100220 38
2010-12-20 09:26:47 51°19.957 2°50.634 -999 22 -0.6 100230 39
2010-12-20 09:26:52 51°19.972 2°50.624 -999 284 -0.6 100230 39
2010-12-20 09:26:57 51°19.987 2°50.614 -999 22 -0.6 100220 39
2010-12-20 09:27:02 51°20.002 2°50.604 -999 307 -0.6 100220 39
2010-12-20 09:27:07 51°20.017 2°50.594 -999 22 -0.6 100230 39
2010-12-20 09:27:12 51°20.032 2°50.584 -999 307 -0.6 100230 39
2010-12-20 09:27:17 51°20.047 2°50.574 -999 22 -0.6 100230 39
2010-12-20 09:27:22 51°20.062 2°50.564 -999 307 -0.6 100230 39
2010-12-20 09:27:27 51°20.077 2°50.554 -999 22 -0.6 100220 39
2010-12-20 09:27:32 51°20.092 2°50.545 -999 307 -0.6 100220 39
2010-12-20 09:27:37 51°20.107 2°50.535 -999 22 -0.6 100230 39
2010-12-20 09:27:42 51°20.122 2°50.526 -999 307 -0.6 100230 39
2010-12-20 09:27:47 51°20.137 2°50.516 -999 22 -0.6 100230 37
2010-12-20 09:27:52 51°20.152 2°50.506 -999 284 -0.6 100230 37
2010-12-20 09:27:57 51°20.167 2°50.496 -999 22 -0.6 100230 39
2010-12-20 09:28:02 51°20.182 2°50.486 -999 307 -0.6 100230 39
2010-12-20 09:28:07 51°20.197 2°50.476 -999 22 -0.6 100220 39
2010-12-20 09:28:12 51°20.212 2°50.466 -999 307 -0.6 100220 39
2010-12-20 09:28:17 51°20.227 2°50.456 -999 22 -0.6 100230 38
2010-12-20 09:28:22 51°20.242 2°50.446 -999 307 -0.6 100230 38
2010-12-20 09:28:27 51°20.257 2°50.436 -999 22 -0.6 100230 39
2010-12-20 09:28:32 51°20.272 2°50.425 -999 307 -0.6 100230 39
2010-12-20 09:28:37 51°20.287 2°50.415 -999 22 -0.6 100230 39
2010-12-20 09:28:42 51°20.302 2°50.405 -999 307 -0.6 100230 39
2010-12-20 09:28:47 51°20.317 2°50.394 -999 22 -0.6 100230 39
2010-12-20 09:28:52 51°20.332 2°50.385 -999 284 -0.6 100230 39
2010-12-20 09:28:56 51°20.344 2°50.377 -999 22 -0.5 100220 39
2010-12-20 09:29:02 51°20.362 2°50.365 -999 307 -0.5 100220 39
2010-12-20 09:29:07 51°20.377 2°50.355 -999 22 -0.5 100220 39
2010-12-20 09:29:12 51°20.392 2°50.345 -999 307 -0.5 100220 39
2010-12-20 09:29:17 51°20.408 2°50.335 -999 255 -0.5 100220 39
2010-12-20 09:29:22 51°20.423 2°50.324 -999 307 -0.5 100220 39
2010-12-20 09:29:27 51°20.438 2°50.314 -999 249 -0.5 100230 39
2010-12-20 09:29:32 51°20.453 2°50.304 -999 307 -0.5 100230 39
2010-12-20 09:29:37 51°20.468 2°50.294 -999 252 -0.6 100240 38
2010-12-20 09:29:42 51°20.483 2°50.283 -999 307 -0.6 100240 38
2010-12-20 09:29:47 51°20.499 2°50.274 -999 22 -0.6 100230 39
2010-12-20 09:29:52 51°20.514 2°50.263 -999 283 -0.6 100230 39
2010-12-20 09:29:56 51°20.526 2°50.255 -999 22 -0.6 100230 38
2010-12-20 09:30:02 51°20.543 2°50.243 -999 307 -0.6 100230 38
2010-12-20 09:30:07 51°20.557 2°50.234 -999 22 -0.5 100230 38
2010-12-20 09:30:12 51°20.571 2°50.225 -999 307 -0.5 100230 38
2010-12-20 09:30:17 51°20.584 2°50.216 -999 252 -0.6 100220 38
2010-12-20 09:30:22 51°20.596 2°50.208 -999 307 -0.6 100220 38
2010-12-20 09:30:27 51°20.609 2°50.2 -999 254 -0.5 100230 37
2010-12-20 09:30:32 51°20.621 2°50.192 -999 307 -0.5 100230 37
2010-12-20 09:30:37 51°20.632 2°50.184 -999 256 -0.5 100230 39
2010-12-20 09:30:42 51°20.644 2°50.176 -999 307 -0.5 100230 39
2010-12-20 09:30:47 51°20.656 2°50.169 -999 256 -0.5 100220 39
2010-12-20 09:30:52 51°20.667 2°50.161 -999 283 -0.5 100220 39
2010-12-20 09:30:57 51°20.678 2°50.154 -999 260 -0.5 100230 39
2010-12-20 09:31:02 51°20.689 2°50.146 -999 307 -0.5 100230 39
2010-12-20 09:31:07 51°20.7 2°50.139 -999 263 -0.5 100230 39
2010-12-20 09:31:12 51°20.711 2°50.132 -999 307 -0.5 100230 39
2010-12-20 09:31:16 51°20.72 2°50.126 -999 257 -0.5 100230 39
2010-12-20 09:31:22 51°20.733 2°50.118 -999 309 -0.5 100230 39
2010-12-20 09:31:27 51°20.744 2°50.11 -999 259 -0.5 100220 38
2010-12-20 09:31:32 51°20.755 2°50.103 -999 307 -0.5 100220 38
2010-12-20 09:31:36 51°20.764 2°50.097 -999 263 -0.5 100230 38
2010-12-20 09:31:42 51°20.777 2°50.089 -999 307 -0.5 100230 38
2010-12-20 09:31:47 51°20.788 2°50.082 -999 263 -0.5 100230 39
2010-12-20 09:31:52 51°20.799 2°50.075 -999 284 -0.5 100230 39
2010-12-20 09:31:57 51°20.81 2°50.067 -999 264 -0.5 100230 38
2010-12-20 09:32:02 51°20.82 2°50.06 -999 307 -0.5 100230 38
2010-12-20 09:32:07 51°20.831 2°50.053 -999 259 -0.5 100230 38
2010-12-20 09:32:12 51°20.842 2°50.046 -999 307 -0.5 100230 38
2010-12-20 09:32:16 51°20.851 2°50.04 -999 259 -0.5 100250 38
2010-12-20 09:32:22 51°20.864 2°50.032 -999 307 -0.5 100250 38
2010-12-20 09:32:27 51°20.874 2°50.025 -999 263 -0.5 100230 39
2010-12-20 09:32:32 51°20.885 2°50.018 -999 307 -0.5 100230 39
2010-12-20 09:32:36 51°20.894 2°50.012 -999 261 -0.5 100230 39
2010-12-20 09:32:42 51°20.907 2°50.003 -999 307 -0.5 100230 39
2010-12-20 09:32:47 51°20.917 2°49.997 -999 268 -0.5 100220 39
2010-12-20 09:32:52 51°20.928 2°49.989 -999 307 -0.5 100220 39
2010-12-20 09:32:57 51°20.939 2°49.982 -999 268 -0.5 100230 39
2010-12-20 09:33:02 51°20.95 2°49.975 -999 307 -0.5 100230 39
2010-12-20 09:33:07 51°20.961 2°49.968 -999 269 -0.5 100230 37
2010-12-20 09:33:12 51°20.972 2°49.961 -999 307 -0.5 100230 37
2010-12-20 09:33:17 51°20.983 2°49.954 -999 27 -0.4 100230 39
2010-12-20 09:33:22 51°20.993 2°49.947 -999 309 -0.4 100230 39
2010-12-20 09:33:27 51°21.004 2°49.939 -999 261 -0.4 100240 39
2010-12-20 09:33:32 51°21.015 2°49.932 -999 307 -0.4 100240 39
2010-12-20 09:33:37 51°21.026 2°49.926 -999 264 -0.4 100230 38
2010-12-20 09:33:42 51°21.037 2°49.919 -999 307 -0.4 100230 38
2010-12-20 09:33:47 51°21.048 2°49.912 -999 266 -0.4 100230 39
2010-12-20 09:33:52 51°21.058 2°49.905 -999 284 -0.4 100230 39
2010-12-20 09:33:57 51°21.069 2°49.897 -999 263 -0.4 100230 39
2010-12-20 09:34:02 51°21.08 2°49.891 -999 307 -0.4 100230 39
2010-12-20 09:34:07 51°21.091 2°49.884 -999 256 -0.4 100230 39
2010-12-20 09:34:12 51°21.102 2°49.877 -999 307 -0.4 100230 39
2010-12-20 09:34:17 51°21.113 2°49.869 -999 259 -0.4 100230 39
2010-12-20 09:34:22 51°21.123 2°49.863 -999 307 -0.4 100230 39
2010-12-20 09:34:27 51°21.134 2°49.856 -999 256 -0.4 100230 39
2010-12-20 09:34:32 51°21.145 2°49.849 -999 307 -0.4 100230 39
2010-12-20 09:34:37 51°21.156 2°49.842 -999 259 -0.4 100230 39
2010-12-20 09:34:43 51°21.169 2°49.834 -999 307 -0.4 100230 39
2010-12-20 09:34:47 51°21.178 2°49.828 -999 256 -0.4 100230 39
2010-12-20 09:34:52 51°21.189 2°49.822 -999 307 -0.4 100230 39
2010-12-20 09:34:57 51°21.199 2°49.815 -999 260 -0.3 100230 39
2010-12-20 09:35:02 51°21.21 2°49.808 -999 307 -0.3 100230 39
2010-12-20 09:35:07 51°21.221 2°49.801 -999 259 -0.3 100230 39
2010-12-20 09:35:12 51°21.232 2°49.794 -999 307 -0.3 100230 39
2010-12-20 09:35:16 51°21.241 2°49.789 -999 264 -0.3 100230 39
2010-12-20 09:35:22 51°21.254 2°49.781 -999 307 -0.3 100230 39
2010-12-20 09:35:27 51°21.265 2°49.774 -999 261 -0.3 100240 39
2010-12-20 09:35:32 51°21.276 2°49.767 -999 307 -0.3 100240 39
2010-12-20 09:35:37 51°21.287 2°49.761 -999 263 -0.3 100230 39
2010-12-20 09:35:42 51°21.298 2°49.754 -999 307 -0.3 100230 39
2010-12-20 09:35:47 51°21.309 2°49.747 -999 257 -0.3 100240 38
2010-12-20 09:35:52 51°21.32 2°49.74 -999 283 -0.3 100240 38
2010-12-20 09:35:57 51°21.33 2°49.733 -999 262 -0.3 100240 39
2010-12-20 09:36:02 51°21.342 2°49.726 -999 307 -0.3 100240 39
2010-12-20 09:36:07 51°21.352 2°49.72 -999 255 -0.3 100230 39
2010-12-20 09:36:12 51°21.363 2°49.713 -999 307 -0.3 100230 39
2010-12-20 09:36:17 51°21.374 2°49.706 -999 262 -0.3 100240 39
2010-12-20 09:36:22 51°21.385 2°49.7 -999 307 -0.3 100240 39
2010-12-20 09:36:27 51°21.396 2°49.693 -999 263 -0.3 100230 39
2010-12-20 09:36:32 51°21.408 2°49.686 -999 307 -0.3 100230 39
2010-12-20 09:36:37 51°21.419 2°49.679 -999 260 -0.3 100230 39
2010-12-20 09:36:43 51°21.433 2°49.671 -999 307 -0.3 100230 39
2010-12-20 09:36:47 51°21.443 2°49.665 -999 260 -0.3 100230 39
2010-12-20 09:36:52 51°21.455 2°49.657 -999 307 -0.3 100230 39
2010-12-20 09:36:56 51°21.465 2°49.651 -999 261 -0.3 100230 39
2010-12-20 09:37:02 51°21.48 2°49.642 -999 307 -0.3 100230 39
2010-12-20 09:37:07 51°21.493 2°49.634 -999 265 -0.3 100230 39
2010-12-20 09:37:12 51°21.505 2°49.626 -999 307 -0.3 100230 39
2010-12-20 09:37:17 51°21.518 2°49.619 -999 250 -0.3 100230 39
2010-12-20 09:37:22 51°21.531 2°49.611 -999 307 -0.3 100230 39
2010-12-20 09:37:27 51°21.544 2°49.603 -999 257 -0.3 100230 39
2010-12-20 09:37:32 51°21.557 2°49.594 -999 307 -0.3 100230 39
2010-12-20 09:37:36 51°21.568 2°49.588 -999 249 -0.2 100230 39
2010-12-20 09:37:42 51°21.585 2°49.577 -999 307 -0.2 100230 39
2010-12-20 09:37:47 51°21.6 2°49.568 -999 249 -0.2 100230 39
2010-12-20 09:37:52 51°21.614 2°49.559 -999 307 -0.2 100230 39
2010-12-20 09:37:57 51°21.629 2°49.549 -999 251 -0.2 100230 39
2010-12-20 09:38:02 51°21.644 2°49.539 -999 307 -0.2 100230 39
2010-12-20 09:38:07 51°21.66 2°49.53 -999 251 -0.2 100230 39
2010-12-20 09:38:12 51°21.675 2°49.52 -999 307 -0.2 100230 39
2010-12-20 09:38:17 51°21.691 2°49.51 -999 250 -0.2 100230 39
2010-12-20 09:38:22 51°21.707 2°49.5 -999 307 -0.2 100230 39
2010-12-20 09:38:27 51°21.723 2°49.49 -999 22 -0.2 100230 37
2010-12-20 09:38:32 51°21.739 2°49.48 -999 307 -0.2 100230 37
2010-12-20 09:38:37 51°21.756 2°49.47 -999 22 -0.2 100230 39
2010-12-20 09:38:42 51°21.772 2°49.46 -999 307 -0.2 100230 39
2010-12-20 09:38:47 51°21.789 2°49.451 -999 22 -0.2 100230 39
2010-12-20 09:38:52 51°21.805 2°49.441 -999 307 -0.2 100230 39
2010-12-20 09:38:57 51°21.822 2°49.431 -999 22 -0.2 100230 39
2010-12-20 09:39:02 51°21.838 2°49.421 -999 307 -0.2 100230 39
2010-12-20 09:39:07 51°21.854 2°49.411 -999 252 -0.2 100230 39
2010-12-20 09:39:12 51°21.87 2°49.401 -999 307 -0.2 100230 39
2010-12-20 09:39:17 51°21.886 2°49.39 -999 249 -0.2 100230 39
2010-12-20 09:39:22 51°21.902 2°49.381 -999 307 -0.2 100230 39
2010-12-20 09:39:27 51°21.919 2°49.371 -999 22 -0.2 100230 39
2010-12-20 09:39:32 51°21.935 2°49.362 -999 307 -0.2 100230 39
2010-12-20 09:39:37 51°21.951 2°49.352 -999 249 -0.1 100220 39
2010-12-20 09:39:42 51°21.968 2°49.343 -999 307 -0.1 100220 39
2010-12-20 09:39:47 51°21.984 2°49.333 -999 22 -0.1 100230 39
2010-12-20 09:39:52 51°22 2°49.324 -999 283 -0.1 100230 39
2010-12-20 09:39:57 51°22.016 2°49.315 -999 250 -0.1 100230 39
2010-12-20 09:40:02 51°22.032 2°49.306 -999 307 -0.1 100230 39
2010-12-20 09:40:07 51°22.048 2°49.296 -999 22 -0.1 100230 39
2010-12-20 09:40:12 51°22.064 2°49.287 -999 307 -0.1 100230 39
2010-12-20 09:40:17 51°22.08 2°49.277 -999 22 -0.1 100240 39
2010-12-20 09:40:22 51°22.096 2°49.268 -999 307 -0.1 100240 39
2010-12-20 09:40:27 51°22.112 2°49.258 -999 22 -0.1 100230 39
2010-12-20 09:40:32 51°22.128 2°49.249 -999 307 -0.1 100230 39
2010-12-20 09:40:37 51°22.144 2°49.239 -999 22 -0.1 100230 39
2010-12-20 09:40:42 51°22.16 2°49.23 -999 307 -0.1 100230 39
2010-12-20 09:40:47 51°22.176 2°49.221 -999 250 -0.1 100220 39
2010-12-20 09:40:52 51°22.191 2°49.211 -999 307 -0.1 100220 39
2010-12-20 09:40:57 51°22.207 2°49.201 -999 253 -0.1 100220 39
2010-12-20 09:41:02 51°22.223 2°49.192 -999 307 -0.1 100220 39
2010-12-20 09:41:07 51°22.239 2°49.182 -999 253 -0.1 100230 37
2010-12-20 09:41:12 51°22.255 2°49.172 -999 307 -0.1 100230 37
2010-12-20 09:41:17 51°22.27 2°49.161 -999 248 -0.1 100220 39
2010-12-20 09:41:23 51°22.289 2°49.15 -999 307 -0.1 100220 39
2010-12-20 09:41:27 51°22.302 2°49.142 -999 254 -0.1 100230 39
2010-12-20 09:41:32 51°22.318 2°49.133 -999 307 -0.1 100230 39
2010-12-20 09:41:36 51°22.33 2°49.125 -999 22 -0.1 100230 39
2010-12-20 09:41:42 51°22.349 2°49.113 -999 307 -0.1 100230 39
2010-12-20 09:41:47 51°22.365 2°49.103 -999 253 -0.1 100220 39
2010-12-20 09:41:52 51°22.381 2°49.093 -999 283 -0.1 100220 39
2010-12-20 09:41:57 51°22.397 2°49.084 -999 249 -0.1 100230 39
2010-12-20 09:42:02 51°22.412 2°49.074 -999 307 -0.1 100230 39
2010-12-20 09:42:07 51°22.428 2°49.065 -999 256 -0.1 100240 39
2010-12-20 09:42:12 51°22.444 2°49.055 -999 307 -0.1 100240 39
2010-12-20 09:42:17 51°22.46 2°49.046 -999 256 -0.1 100230 39
2010-12-20 09:42:22 51°22.476 2°49.037 -999 307 -0.1 100230 39
2010-12-20 09:42:27 51°22.491 2°49.026 -999 22 -0.1 100230 39
2010-12-20 09:42:32 51°22.507 2°49.017 -999 307 -0.1 100230 39
2010-12-20 09:42:37 51°22.522 2°49.007 -999 251 -999 100240 39
2010-12-20 09:42:42 51°22.538 2°48.998 -999 307 -999 100240 39
2010-12-20 09:42:47 51°22.553 2°48.988 -999 259 -0.1 100220 39
2010-12-20 09:42:52 51°22.569 2°48.978 -999 284 -0.1 100220 39
2010-12-20 09:42:57 51°22.584 2°48.969 -999 23 -999 100230 39
2010-12-20 09:43:02 51°22.599 2°48.958 -999 307 -999 100230 39
2010-12-20 09:43:07 51°22.615 2°48.949 -999 250 -999 100230 39
2010-12-20 09:43:12 51°22.63 2°48.939 -999 307 -999 100230 39
2010-12-20 09:43:17 51°22.646 2°48.93 -999 249 -999 100230 39
2010-12-20 09:43:22 51°22.662 2°48.919 -999 307 -999 100230 39
2010-12-20 09:43:27 51°22.677 2°48.91 -999 256 -999 100240 39
2010-12-20 09:43:32 51°22.692 2°48.9 -999 307 -999 100240 39
2010-12-20 09:43:37 51°22.708 2°48.891 -999 22 -999 100230 39
2010-12-20 09:43:42 51°22.723 2°48.88 -999 307 -999 100230 39
2010-12-20 09:43:47 51°22.739 2°48.871 -999 22 -999 100230 37
2010-12-20 09:43:52 51°22.754 2°48.861 -999 307 -999 100230 37
2010-12-20 09:43:57 51°22.77 2°48.851 -999 257 -999 100230 39
2010-12-20 09:44:02 51°22.786 2°48.841 -999 307 -999 100230 39
2010-12-20 09:44:07 51°22.802 2°48.831 -999 253 -999 100230 39
2010-12-20 09:44:12 51°22.817 2°48.821 -999 307 -999 100230 39
2010-12-20 09:44:17 51°22.833 2°48.811 -999 255 -999 100230 39
2010-12-20 09:44:22 51°22.848 2°48.802 -999 307 -999 100230 39
2010-12-20 09:44:27 51°22.864 2°48.791 -999 251 -999 100230 39
2010-12-20 09:44:32 51°22.88 2°48.783 -999 307 -999 100230 39
2010-12-20 09:44:36 51°22.892 2°48.774 -999 251 0.1 100230 39
2010-12-20 09:44:42 51°22.911 2°48.764 -999 307 0.1 100230 39
2010-12-20 09:44:47 51°22.926 2°48.752 -999 22 -999 100240 39
2010-12-20 09:44:52 51°22.942 2°48.744 -999 283 -999 100240 39
2010-12-20 09:44:57 51°22.957 2°48.732 -999 22 0.1 100240 39
2010-12-20 09:45:02 51°22.974 2°48.724 -999 307 0.1 100240 39
2010-12-20 09:45:07 51°22.989 2°48.713 -999 245 0.1 100230 39
2010-12-20 09:45:12 51°23.005 2°48.705 3.1 310 0.1 100230 39
2010-12-20 09:45:16 51°23.017 2°48.696 3.9 19 0.1 100240 39
2010-12-20 09:45:22 51°23.037 2°48.686 3.8 309 0.1 100240 39
2010-12-20 09:45:27 51°23.052 2°48.674 3.8 253 0.1 100250 41
2010-12-20 09:45:32 51°23.068 2°48.666 3.5 311 0.1 100250 41
2010-12-20 09:45:37 51°23.084 2°48.654 4.8 253 0.1 100240 40
2010-12-20 09:45:42 51°23.1 2°48.647 3.9 309 0.1 100240 40
2010-12-20 09:45:47 51°23.115 2°48.634 5 253 0.2 100240 40
2010-12-20 09:45:52 51°23.13 2°48.625 2.7 304 0.2 100240 40
2010-12-20 09:45:57 51°23.146 2°48.614 3.5 253 0.1 100240 41
2010-12-20 09:46:02 51°23.162 2°48.603 3.4 310 0.1 100240 41
2010-12-20 09:46:07 51°23.178 2°48.594 3.9 254 0.2 100230 40
2010-12-20 09:46:12 51°23.193 2°48.581 3.2 305 0.2 100230 40
2010-12-20 09:46:17 51°23.209 2°48.573 3.5 249 0.1 100230 40
2010-12-20 09:46:22 51°23.224 2°48.561 3.9 309 0.1 100230 40
2010-12-20 09:46:27 51°23.24 2°48.552 2.9 253 0.1 100240 36
2010-12-20 09:46:32 51°23.256 2°48.542 4.3 312 0.1 100240 36
2010-12-20 09:46:37 51°23.272 2°48.531 3.3 251 0.1 100240 40
2010-12-20 09:46:42 51°23.288 2°48.522 3.6 310 0.1 100240 40
2010-12-20 09:46:47 51°23.303 2°48.511 3.6 258 0.1 100230 40
2010-12-20 09:46:52 51°23.32 2°48.501 3.5 285 0.1 100230 40
2010-12-20 09:46:57 51°23.336 2°48.492 3.5 254 0.1 100240 37
2010-12-20 09:47:02 51°23.352 2°48.481 2.5 308 0.1 100240 37
2010-12-20 09:47:07 51°23.368 2°48.472 2.5 260 0.1 100230 40
2010-12-20 09:47:12 51°23.384 2°48.461 2.9 306 0.1 100230 40
2010-12-20 09:47:17 51°23.4 2°48.451 1.7 261 0.1 100240 38
2010-12-20 09:47:22 51°23.416 2°48.441 2.8 305 0.1 100240 38
2010-12-20 09:47:27 51°23.432 2°48.431 2.3 257 0.1 100230 37
2010-12-20 09:47:32 51°23.448 2°48.421 2.9 309 0.1 100230 37
2010-12-20 09:47:37 51°23.464 2°48.412 2.6 250 0.1 100230 39
2010-12-20 09:47:42 51°23.48 2°48.402 1.8 302 0.1 100230 39
2010-12-20 09:47:47 51°23.496 2°48.392 1.9 255 0.1 100240 37
2010-12-20 09:47:52 51°23.512 2°48.382 3.4 280 0.1 100240 37
2010-12-20 09:47:57 51°23.528 2°48.373 3.1 246 0.1 100240 37
2010-12-20 09:48:02 51°23.544 2°48.363 4 304 0.1 100240 37
2010-12-20 09:48:07 51°23.56 2°48.353 3.5 253 0.1 100240 37
2010-12-20 09:48:12 51°23.577 2°48.343 4 303 0.1 100240 37
2010-12-20 09:48:17 51°23.592 2°48.334 4.2 257 0.2 100240 40
2010-12-20 09:48:22 51°23.609 2°48.324 3.6 303 0.2 100240 40
2010-12-20 09:48:27 51°23.625 2°48.314 3.8 253 0.2 100230 37
2010-12-20 09:48:32 51°23.641 2°48.306 2.7 305 0.2 100230 37
2010-12-20 09:48:37 51°23.657 2°48.296 3 258 0.2 100250 37
2010-12-20 09:48:42 51°23.674 2°48.287 3 305 0.2 100250 37
2010-12-20 09:48:47 51°23.69 2°48.276 2.9 259 0.2 100240 40
2010-12-20 09:48:52 51°23.706 2°48.267 2.3 311 0.2 100240 40
2010-12-20 09:48:57 51°23.722 2°48.257 2.1 252 0.2 100240 37
2010-12-20 09:49:02 51°23.739 2°48.247 1.5 310 0.2 100240 37
2010-12-20 09:49:07 51°23.755 2°48.237 2.7 248 0.2 100240 39
2010-12-20 09:49:12 51°23.771 2°48.227 0.7 310 0.2 100240 39
2010-12-20 09:49:17 51°23.788 2°48.218 0.1 259 0.2 100240 37
2010-12-20 09:49:22 51°23.804 2°48.207 0.1 303 0.2 100240 37
2010-12-20 09:49:27 51°23.82 2°48.198 1 247 0.2 100240 39
2010-12-20 09:49:32 51°23.837 2°48.188 1.7 309 0.2 100240 39
2010-12-20 09:49:37 51°23.853 2°48.178 2.7 20 0.2 100240 39
2010-12-20 09:49:42 51°23.869 2°48.168 1.4 311 0.2 100240 39
2010-12-20 09:49:47 51°23.886 2°48.159 3.1 21 0.2 100240 38
2010-12-20 09:49:52 51°23.902 2°48.15 2.6 279 0.2 100240 38
2010-12-20 09:49:56 51°23.915 2°48.142 3.2 18 0.2 100240 41
2010-12-20 09:50:02 51°23.934 2°48.13 3.3 303 0.2 100240 41
2010-12-20 09:50:07 51°23.95 2°48.12 4.4 20 0.2 100240 37
2010-12-20 09:50:12 51°23.966 2°48.111 4.1 303 0.2 100240 37
2010-12-20 09:50:17 51°23.983 2°48.102 4.3 18 0.2 100240 40
2010-12-20 09:50:22 51°23.998 2°48.093 4.1 311 0.2 100240 40
2010-12-20 09:50:27 51°24.015 2°48.084 3.1 255 0.3 100250 37
2010-12-20 09:50:32 51°24.031 2°48.074 3.1 308 0.3 100250 37
2010-12-20 09:50:36 51°24.044 2°48.067 3 254 0.3 100240 40
2010-12-20 09:50:42 51°24.063 2°48.055 3.8 309 0.3 100240 40
2010-12-20 09:50:47 51°24.079 2°48.046 2.8 255 0.3 100230 37
2010-12-20 09:50:52 51°24.095 2°48.036 3 308 0.3 100230 37
2010-12-20 09:50:57 51°24.111 2°48.026 2.1 249 0.3 100240 40
2010-12-20 09:51:02 51°24.127 2°48.016 1.2 311 0.3 100240 40
2010-12-20 09:51:07 51°24.143 2°48.006 2.2 252 0.3 100240 38
2010-12-20 09:51:12 51°24.159 2°47.997 2.2 309 0.3 100240 38
2010-12-20 09:51:17 51°24.176 2°47.987 2.6 252 0.3 100240 37
2010-12-20 09:51:22 51°24.192 2°47.978 0.7 309 0.3 100240 37
2010-12-20 09:51:27 51°24.208 2°47.968 0.2 21 0.3 100240 41
2010-12-20 09:51:32 51°24.224 2°47.958 0.1 307 0.3 100240 41
2010-12-20 09:51:37 51°24.24 2°47.949 -999 22 0.3 100240 40
2010-12-20 09:51:42 51°24.256 2°47.939 -999 307 0.3 100240 40
2010-12-20 09:51:47 51°24.272 2°47.93 -999 248 0.3 100250 38
2010-12-20 09:51:52 51°24.288 2°47.92 -999 284 0.3 100250 38
2010-12-20 09:51:57 51°24.305 2°47.911 -999 250 0.3 100240 39
2010-12-20 09:52:02 51°24.321 2°47.901 -999 307 0.3 100240 39
2010-12-20 09:52:07 51°24.337 2°47.891 -999 250 0.3 100240 39
2010-12-20 09:52:12 51°24.353 2°47.882 -999 307 0.3 100240 39
2010-12-20 09:52:17 51°24.369 2°47.872 -999 253 0.3 100220 39
2010-12-20 09:52:22 51°24.386 2°47.862 -999 307 0.3 100220 39
2010-12-20 09:52:27 51°24.402 2°47.852 -999 254 0.3 100230 39
2010-12-20 09:52:32 51°24.419 2°47.842 -999 307 0.3 100230 39
2010-12-20 09:52:37 51°24.435 2°47.832 -999 254 0.3 100240 39
2010-12-20 09:52:42 51°24.451 2°47.822 -999 307 0.3 100240 39
2010-12-20 09:52:47 51°24.468 2°47.812 -999 255 0.3 100240 39
2010-12-20 09:52:52 51°24.484 2°47.802 -999 307 0.3 100240 39
2010-12-20 09:52:57 51°24.5 2°47.792 -999 254 0.3 100250 38
2010-12-20 09:53:02 51°24.517 2°47.781 -999 307 0.3 100250 38
2010-12-20 09:53:07 51°24.533 2°47.771 -999 255 0.3 100240 38
2010-12-20 09:53:12 51°24.55 2°47.761 -999 307 0.3 100240 38
2010-12-20 09:53:17 51°24.566 2°47.751 -999 256 0.3 100240 39
2010-12-20 09:53:22 51°24.582 2°47.741 1.7 307 0.3 100240 39
2010-12-20 09:53:27 51°24.599 2°47.731 1.8 252 0.3 100250 39
2010-12-20 09:53:32 51°24.615 2°47.721 3.2 308 0.3 100250 39
2010-12-20 09:53:36 51°24.628 2°47.714 2.5 252 0.3 100240 39
2010-12-20 09:53:42 51°24.648 2°47.702 2.9 309 0.3 100240 39
2010-12-20 09:53:47 51°24.664 2°47.692 4.2 19 0.3 100260 38
2010-12-20 09:53:52 51°24.681 2°47.682 4.9 285 0.3 100260 38
2010-12-20 09:53:57 51°24.697 2°47.672 4.2 259 0.3 100240 40
2010-12-20 09:54:02 51°24.713 2°47.662 3.9 310 0.3 100240 40
2010-12-20 09:54:07 51°24.73 2°47.652 3.4 256 0.3 100240 39
2010-12-20 09:54:12 51°24.747 2°47.642 4.8 305 0.3 100240 39
2010-12-20 09:54:17 51°24.763 2°47.632 4.6 258 0.3 100250 40
2010-12-20 09:54:22 51°24.78 2°47.622 3.1 309 0.3 100250 40
2010-12-20 09:54:27 51°24.796 2°47.612 4.6 252 0.3 100260 37
2010-12-20 09:54:32 51°24.813 2°47.602 4.6 306 0.3 100260 37
2010-12-20 09:54:37 51°24.829 2°47.592 4.6 250 0.4 100230 40
2010-12-20 09:54:42 51°24.846 2°47.581 4.9 310 0.4 100230 40
2010-12-20 09:54:47 51°24.862 2°47.571 4.6 254 0.3 100240 40
2010-12-20 09:54:52 51°24.879 2°47.559 4.9 309 0.3 100240 40
2010-12-20 09:54:57 51°24.895 2°47.548 5.4 257 0.4 100250 40
2010-12-20 09:55:02 51°24.911 2°47.536 5.1 303 0.4 100250 40
2010-12-20 09:55:07 51°24.927 2°47.524 4.5 254 0.4 100240 40
2010-12-20 09:55:12 51°24.943 2°47.511 4.6 309 0.4 100240 40
2010-12-20 09:55:16 51°24.955 2°47.501 3.7 253 0.3 100240 37
2010-12-20 09:55:22 51°24.974 2°47.485 4.9 308 0.3 100240 37
2010-12-20 09:55:27 51°24.99 2°47.471 3.4 256 0.4 100230 39
2010-12-20 09:55:32 51°25.005 2°47.458 4.6 310 0.4 100230 39
2010-12-20 09:55:37 51°25.021 2°47.444 4.4 254 0.3 100240 39
2010-12-20 09:55:42 51°25.036 2°47.431 3.9 306 0.3 100240 39
2010-12-20 09:55:47 51°25.052 2°47.417 4.4 252 0.3 100250 40
2010-12-20 09:55:52 51°25.067 2°47.403 2.7 283 0.3 100250 40
2010-12-20 09:55:56 51°25.08 2°47.393 3.8 255 0.3 100240 40
2010-12-20 09:56:02 51°25.098 2°47.377 2.4 306 0.3 100240 40
2010-12-20 09:56:07 51°25.114 2°47.363 2.5 253 0.3 100240 37
2010-12-20 09:56:12 51°25.129 2°47.35 2.6 303 0.3 100240 37
2010-12-20 09:56:17 51°25.145 2°47.336 3.2 256 0.3 100260 37
2010-12-20 09:56:22 51°25.16 2°47.323 2.5 308 0.3 100260 37
2010-12-20 09:56:27 51°25.175 2°47.309 2.7 20 0.3 100240 40
2010-12-20 09:56:32 51°25.19 2°47.296 3.4 308 0.3 100240 40
2010-12-20 09:56:36 51°25.202 2°47.286 4.1 250 0.3 100250 40
2010-12-20 09:56:42 51°25.22 2°47.27 3.6 305 0.3 100250 40
2010-12-20 09:56:47 51°25.235 2°47.257 3.8 252 0.3 100240 40
2010-12-20 09:56:52 51°25.25 2°47.245 4.1 305 0.3 100240 40
2010-12-20 09:56:57 51°25.265 2°47.231 4.4 19 0.4 100240 40
2010-12-20 09:57:02 51°25.28 2°47.219 4 306 0.4 100240 40
2010-12-20 09:57:07 51°25.295 2°47.206 4.6 251 0.4 100240 36